Starlink 31964

operational
NORAD ID: 59895 Int'l Des: 2024-100 Owner: SPXS Country: US Constellation: starlink
LEOCIRCULAR

Starlink 31964について

説明を読み込み中...

リアルタイム位置

3D地球を読み込み中...

次回通過

高度履歴

Altitude vs Time

uPlot chart will show altitude changes over time

軌道要素

1 59895U 24100L 26095.38572721 -.00002147 00000-0 -68568-4 0 9993
2 59895 43.0030 334.2940 0001331 271.7132 88.3567 15.27553573105190
Epoch: Apr 5, 2026 • Age: 9 hours

現在のステータス

高度 482.6 km
速度 7.63 km/s
衛星直下点 14.78°N, 35.01°E
打ち上げ日 May 28, 2024
運用期間 1.8 years
タイプ internet

技術仕様

分類 Payload
質量 730.00 kg
乾燥質量 700.00 kg
総質量 730.00 kg
長さ 0.30 m
直径 4.10 m
スパン 29.00 m
形状 Box + pan
製造者 SPXS
バスタイプ Starlink V2M
フェーズステータス In Orbit
所有者/国 SPXS/US

大規模コンステレーション

Loading constellations...